Home > Weather > Białystok > Past weeks

Flag for Poland Past Weather in Białystok, Poland — Yesterday and Last 2 Weeks

Now
60 °F

Fog.


Feels Like: 60 °F
Forecast: 62 / 83 °F
Wind: 1 mph from Northwest

Location: Bialystok

Current Time: Jul 24, 2016 at 4:58:24 AM

Latest Report: Jul 24, 2016 at 4:00 AM


Visibility: 4 mi

Pressure: 30.11 "Hg

Humidity: 97%

Dew Point: 60 °F

Location of BiałystokLocation

Past Weather in Białystok — Graph

°F

Białystok Temperature Yesterday

Maximum temperature yesterday: 76 °F (at 1:00 PM)
Minimum temperature yesterday: 63 °F (at 1:00 AM)
Average temperature yesterday: 68 °F

High & Low Weather Summary for the Past Weeks

 TemperatureHumidityPressure
High85 °F (Jul 11, 5:00 PM)99% (Jul 13, 4:00 AM)30.19 "Hg (Jul 13, 4:00 AM)
Low52 °F (Jul 20, 5:00 AM)36% (Jul 20, 5:00 PM)29.62 "Hg (Jul 14, 8:00 PM)
Average63 °F81%29.94 "Hg
* Reported Jul 9 3:00 AM — Jul 24 3:00 AM, Białystok, Weather by CustomWeather, © 2016

Note: Actual official high and low records may vary slightly from our data, if they occured in-between our weather recording intervals... More about our weather records

Advertising

Białystok Weather History for the Previous 24 Hours

Scroll right to see more
 ConditionsComfort  
Time TempWeatherWind HumidityBarometerVisibility
3:00 AM
Sun, Jul 24
59 °FFog.1 mph96%30.11 "Hg3 mi
2:00 AM60 °FFog.1 mph94%30.10 "Hg4 mi
1:00 AM63 °FPassing clouds.2 mph90%30.11 "Hg6 mi
12:00 AM63 °FFog.2 mph92%30.10 "Hg6 mi
11:00 PM
Sat, Jul 23
63 °FClear.1 mph88%30.10 "Hg6 mi
10:00 PM67 °FClear.2 mph80%30.09 "Hg10 mi
9:00 PM68 °FPassing clouds.1 mph76%30.08 "Hg11 mi
8:00 PM71 °FPassing clouds.2 mph68%30.06 "Hg14 mi
7:00 PM72 °FPassing clouds.2 mph65%30.05 "Hg16 mi
6:00 PM74 °FPassing clouds.3 mph62%30.05 "Hg12 mi
5:00 PM75 °FScattered clouds.3 mph62%30.05 "Hg14 mi
4:00 PM74 °FPartly sunny.5 mph63%30.06 "Hg14 mi
3:00 PM74 °FPartly sunny.3 mph63%30.06 "Hg14 mi
2:00 PM75 °FPartly sunny.5 mph61%30.05 "Hg12 mi
1:00 PM76 °FPartly sunny.3 mph64%30.05 "Hg13 mi
12:00 PM72 °FPartly sunny.3 mph67%30.05 "Hg14 mi
11:00 AM71 °FPartly sunny.3 mph78%30.06 "Hg9 mi
10:00 AM68 °FOvercast.3 mph85%30.06 "Hg7 mi
9:00 AM67 °FLow clouds.2 mph86%30.05 "Hg9 mi
8:00 AM66 °FLow clouds.2 mph90%30.04 "Hg6 mi
7:00 AM65 °FFog.2 mph92%30.04 "Hg6 mi
6:00 AM64 °FFog.1 mph94%30.03 "Hg4 mi
5:00 AM63 °FFog.2 mph95%30.02 "Hg4 mi
4:00 AM63 °FFog.2 mph95%30.02 "Hg4 mi
Weather by CustomWeather, © 2016

See weather overviewHow to use our weather pages